EW9154 Weather Reports


Display with metric or nautical units.
time (UTC)temp
F
wind
direction
speed
MPH
gust
MPH
rain 1hr
in
rain 24hr
in
rain mn
in
humidity
%
barometer
mb
20260903133722 74 156 0.0 0.0 0.00 0.00 0.00 81 1024.0
20260903132927 74 159 0.0 1.0 0.00 0.00 0.00 82 1024.0
20260903132406 74 169 0.0 1.0 0.00 0.00 0.00 81 1023.9
20260903131825 74 189 0.0 1.0 0.00 0.00 0.00 82 1023.9
20260903131321 74 196 0.0 0.0 0.00 0.00 0.00 82 1024.0
20260903130821 74 242 0.0 1.0 0.00 0.00 0.00 82 1023.9
20260903130255 74 184 0.0 1.0 0.00 0.00 0.00 82 1023.9
20260903125728 74 182 0.0 3.0 0.00 0.00 0.00 82 1023.8
20260903125232 74 211 0.0 3.0 0.00 0.00 0.00 82 1023.7
20260903124641 74 172 0.0 4.0 0.00 0.00 0.00 82 1023.7
20260903124112 74 190 0.0 4.0 0.00 0.00 0.00 82 1023.7
20260903123611 74 177 0.0 2.0 0.00 0.00 0.00 82 1023.7
20260903123042 74 179 0.0 1.0 0.00 0.00 0.00 83 1023.6
20260903122541 74 187 0.0 0.0 0.00 0.00 0.00 83 1023.1
20260903122021 74 187 0.0 0.0 0.00 0.00 0.00 83 1023.0
20260903121518 74 188 0.0 7.0 0.00 0.00 0.00 83 1023.0
20260903121014 74 185 0.0 7.0 0.00 0.00 0.00 83 1023.2
20260903120743 75 203 1.0 13.0 0.00 0.00 0.00 83 1023.1
20260903120446 75 178 1.0 13.0 0.00 0.00 0.00 83 1023.3
20260903115442 75 226 0.0 7.0 0.00 0.00 0.00 83 1023.4
20260903114918 75 209 0.0 6.0 0.00 0.00 0.00 84 1023.4
20260903114417 74 235 1.0 11.0 0.00 0.00 0.00 85 1023.7
20260903113851 74 200 1.0 11.0 0.00 0.00 0.00 85 1023.7
20260903113327 75 213 2.0 14.0 0.00 0.00 0.00 85 1024.1
20260903112759 75 236 1.0 14.0 0.00 0.00 0.00 85 1024.4
20260903112246 75 219 0.0 7.0 0.00 0.00 0.00 87 1024.3
20260903111749 74 189 0.0 7.0 0.00 0.00 0.00 88 1024.3
20260903111222 74 199 0.0 1.0 0.00 0.00 0.00 89 1024.2
20260903110951 74 209 0.0 0.0 0.00 0.00 0.00 89 1024.1
20260903110156 74 228 0.0 0.0 0.00 0.00 0.00 89 1024.0
20260903105652 74 234 0.0 1.0 0.00 0.00 0.00 89 1023.9
20260903105402 74 186 0.0 1.0 0.00 0.00 0.00 89 1023.9
20260903104614 74 189 0.0 3.0 0.00 0.00 0.00 89 1024.0
20260903104341 74 180 0.0 3.0 0.00 0.00 0.00 89 1024.1
20260903103612 74 193 0.0 6.0 0.00 0.00 0.00 89 1024.1
20260903103109 74 201 0.0 6.0 0.00 0.00 0.00 89 1024.1
20260903102609 74 224 0.0 8.0 0.00 0.00 0.00 90 1024.3
20260903102056 74 148 0.0 8.0 0.00 0.00 0.00 90 1024.3
20260903101553 73 195 0.0 1.0 0.00 0.00 0.00 90 1024.0
20260903101056 73 197 0.0 1.0 0.00 0.00 0.00 90 1023.8
20260903100554 73 207 0.0 0.0 0.00 0.00 0.00 90 1023.7
20260903100054 73 237 0.0 0.0 0.00 0.00 0.00 90 1023.7
20260903095544 73 211 0.0 0.0 0.00 0.00 0.00 90 1023.8
20260903095045 73 192 0.0 1.0 0.00 0.00 0.00 90 1023.9
20260903094534 73 184 0.0 1.0 0.00 0.00 0.00 91 1024.2
20260903093955 73 175 0.0 1.0 0.00 0.00 0.00 91 1024.2
20260903093442 73 193 0.0 0.0 0.00 0.00 0.00 91 1024.1
20260903092942 73 187 0.0 0.0 0.00 0.00 0.00 91 1024.0
20260903092440 73 109 0.0 0.0 0.00 0.00 0.00 91 1023.9
20260903091925 73 65 0.0 0.0 0.00 0.00 0.00 91 1023.9
20260903091409 73 65 0.0 0.0 0.00 0.00 0.00 91 1023.9
20260903090858 73 65 0.0 0.0 0.00 0.00 0.00 91 1023.8
20260903090632 73 65 0.0 0.0 0.00 0.00 0.00 90 1023.7
20260903085833 73 65 0.0 0.0 0.00 0.00 0.00 90 1023.7
20260903085318 73 65 0.0 0.0 0.00 0.00 0.00 90 1023.7
20260903084758 73 65 0.0 0.0 0.00 0.00 0.00 90 1023.6
20260903084244 73 63 0.0 0.0 0.00 0.00 0.00 90 1023.8
20260903084239 73 63 0.0 0.0 0.00 0.00 0.00 90 1023.7
20260903083218 73 63 0.0 0.0 0.00 0.00 0.00 90 1023.8
20260903082658 73 59 0.0 0.0 0.00 0.00 0.00 90 1023.7
20260903082143 73 96 0.0 0.0 0.00 0.00 0.00 90 1023.9
20260903081639 73 96 0.0 0.0 0.00 0.00 0.00 90 1023.9
20260903081140 74 96 0.0 0.0 0.00 0.00 0.00 90 1023.9
20260903080603 74 96 0.0 0.0 0.00 0.00 0.00 89 1023.9
20260903080039 74 96 0.0 0.0 0.00 0.00 0.00 89 1023.9
20260903075519 74 96 0.0 0.0 0.00 0.00 0.00 89 1024.0
20260903075225 74 96 0.0 0.0 0.00 0.00 0.00 89 1023.9
20260903074426 74 95 0.0 0.0 0.00 0.00 0.00 89 1023.9
20260903073915 74 95 0.0 0.0 0.00 0.00 0.00 88 1024.0
20260903073411 74 95 0.0 0.0 0.00 0.00 0.00 88 1024.0
20260903072846 74 95 0.0 0.0 0.00 0.00 0.00 88 1024.1
20260903072319 74 96 0.0 0.0 0.00 0.00 0.00 88 1024.2
20260903071755 74 78 0.0 0.0 0.00 0.00 0.00 88 1024.2
20260903071227 74 82 0.0 0.0 0.00 0.01 0.00 88 1024.3
20260903070713 75 76 0.0 0.0 0.00 0.02 0.00 88 1024.2
20260903070147 75 74 0.0 0.0 0.00 0.03 0.00 88 1024.2
20260903065622 75 74 0.0 0.0 0.00 0.04 0.00 88 1024.1
20260903065056 75 72 0.0 0.0 0.00 0.04 0.00 88 1024.2
20260903064527 75 65 0.0 0.0 0.00 0.05 0.00 88 1024.3
20260903064002 75 65 0.0 0.0 0.00 0.05 0.00 87 1024.4
20260903063503 75 65 0.0 0.0 0.00 0.05 0.00 87 1024.4
20260903062940 75 65 0.0 0.0 0.00 0.06 0.00 87 1024.3
20260903062411 75 65 0.0 0.0 0.00 0.06 0.00 87 1024.4
20260903061911 75 65 0.0 0.0 0.00 0.06 0.00 87 1024.4
20260903061343 76 65 0.0 0.0 0.00 0.06 0.00 87 1024.4
20260903060818 76 65 0.0 0.0 0.00 0.06 0.00 87 1024.4
20260903060555 76 65 0.0 0.0 0.00 0.06 0.00 87 1024.4
20260903055754 76 65 0.0 0.0 0.00 0.06 0.00 86 1024.3
20260903055250 76 63 0.0 0.0 0.00 0.06 0.00 86 1024.4
20260903054725 76 136 0.0 0.0 0.00 0.06 0.00 86 1024.5
20260903054224 76 198 0.0 0.0 0.00 0.06 0.00 86 1024.5
20260903053655 76 200 0.0 0.0 0.00 0.06 0.00 86 1024.4
20260903053147 76 222 0.0 0.0 0.00 0.06 0.00 85 1024.4
20260903052627 76 222 0.0 0.0 0.00 0.06 0.00 85 1024.4
20260903052400 76 221 0.0 0.0 0.00 0.06 0.00 84 1024.4
20260903052125 76 222 0.0 0.0 0.00 0.06 0.00 85 1024.4
20260903051057 77 221 0.0 0.0 0.00 0.06 0.00 84 1024.4
20260903050554 77 221 0.0 0.0 0.00 0.06 0.00 84 1024.4
20260903050325 77 221 0.0 0.0 0.00 0.06 0.00 83 1024.5
20260903045825 77 221 0.0 0.0 0.00 0.06 0.06 83 1024.5
20260903045049 77 221 0.0 0.0 0.00 0.06 0.06 82 1024.5
20260903044547 77 221 0.0 0.0 0.00 0.06 0.06 82 1024.6
20260903044022 77 221 0.0 0.0 0.00 0.06 0.06 82 1024.5
20260903043728 77 221 0.0 0.0 0.00 0.06 0.06 81 1024.5
20260903042948 78 221 0.0 0.0 0.00 0.06 0.06 81 1024.6
20260903042444 78 221 0.0 0.0 0.00 0.06 0.06 81 1024.8
20260903042211 78 221 0.0 0.0 0.00 0.06 0.06 80 1024.8
20260903041413 78 221 0.0 0.0 0.00 0.06 0.06 80 1024.8
20260903040911 78 224 0.0 0.0 0.00 0.06 0.06 80 1024.8
20260903040409 78 224 0.0 0.0 0.00 0.06 0.06 79 1024.8
20260903035907 78 224 0.0 0.0 0.00 0.06 0.06 79 1024.9
20260903035401 78 224 0.0 0.0 0.00 0.06 0.06 78 1024.9
20260903034859 78 224 0.0 0.0 0.00 0.06 0.06 78 1024.8
20260903034342 79 225 0.0 0.0 0.00 0.06 0.06 77 1024.9
20260903033838 79 225 0.0 0.0 0.00 0.06 0.06 77 1024.9
20260903033333 79 225 0.0 0.0 0.00 0.06 0.06 77 1024.9
20260903032826 79 224 0.0 0.0 0.00 0.06 0.06 77 1024.9
20260903032306 79 224 0.0 0.0 0.00 0.06 0.06 76 1024.9
20260903031806 79 221 0.0 0.0 0.00 0.06 0.06 76 1024.9
20260903031303 79 221 0.0 0.0 0.00 0.06 0.06 75 1024.9
20260903031035 80 221 0.0 0.0 0.00 0.06 0.06 75 1024.9
20260903030244 80 221 0.0 0.0 0.00 0.06 0.06 74 1025.0
20260903025748 80 221 0.0 0.0 0.00 0.06 0.06 74 1024.9
20260903025235 80 221 0.0 0.0 0.00 0.06 0.06 73 1024.9
20260903024738 81 221 0.0 0.0 0.00 0.06 0.06 72 1024.9
20260903024212 81 224 0.0 0.0 0.00 0.06 0.06 71 1024.9
20260903023928 81 224 0.0 0.0 0.00 0.06 0.06 70 1024.9
20260903023202 81 224 0.0 0.0 0.00 0.06 0.06 70 1024.8
20260903022650 81 224 0.0 0.0 0.00 0.06 0.06 69 1024.8
20260903022352 82 224 0.0 0.0 0.00 0.06 0.06 69 1024.8
20260903021618 82 224 0.0 0.0 0.00 0.06 0.06 68 1024.8
20260903021115 82 224 0.0 0.0 0.00 0.06 0.06 68 1024.8
20260903020614 82 224 0.0 0.0 0.00 0.06 0.06 67 1024.9
20260903020048 82 224 0.0 0.0 0.00 0.06 0.06 67 1024.8
20260903015548 82 224 0.0 0.0 0.00 0.06 0.06 67 1024.8
20260903015051 82 224 0.0 0.0 0.00 0.06 0.06 67 1024.8
20260903014753 83 224 0.0 0.0 0.00 0.06 0.06 66 1024.8
20260903014021 83 224 0.0 0.0 0.00 0.06 0.06 65 1024.6
20260903013456 83 224 0.0 0.0 0.00 0.06 0.06 65 1024.6
20260903012935 83 224 0.0 0.0 0.00 0.06 0.06 64 1024.5
20260903012706 83 224 0.0 0.0 0.00 0.06 0.06 64 1024.5
20260903011932 83 224 0.0 0.0 0.00 0.06 0.06 64 1024.4
20260903011431 83 224 0.0 0.0 0.00 0.06 0.06 64 1024.3
20260903010905 84 224 0.0 0.0 0.00 0.06 0.06 64 1024.4
20260903010337 84 224 0.0 0.0 0.00 0.06 0.06 63 1024.3
20260903005835 84 224 0.0 0.0 0.00 0.06 0.06 63 1024.2
20260903005309 84 224 0.0 0.0 0.00 0.06 0.06 63 1024.2
20260903004741 84 224 0.0 0.0 0.00 0.06 0.06 63 1024.1
20260903004240 85 223 0.0 0.0 0.00 0.06 0.06 62 1024.2
20260903003941 85 223 0.0 0.0 0.00 0.06 0.06 61 1024.1
20260903003440 85 223 0.0 0.0 0.00 0.06 0.06 61 1024.2
20260903002641 86 223 0.0 0.0 0.00 0.06 0.06 60 1024.2
20260903002133 86 223 0.0 0.0 0.00 0.06 0.06 60 1024.2
20260903001605 86 223 0.0 0.0 0.00 0.06 0.06 59 1024.2
20260903001334 86 223 0.0 0.0 0.00 0.06 0.06 59 1024.3
20260903001038 87 223 0.0 0.0 0.00 0.06 0.06 59 1024.2
20260903000034 87 223 0.0 0.0 0.00 0.06 0.06 58 1024.2
20260902235505 87 223 0.0 0.0 0.00 0.06 0.06 58 1024.3
20260902234955 87 223 0.0 0.0 0.00 0.06 0.06 57 1024.3
20260902234451 88 223 0.0 0.0 0.00 0.06 0.06 56 1024.3
20260902233928 88 223 0.0 0.0 0.00 0.06 0.06 56 1024.2
20260902233631 88 223 0.0 0.0 0.00 0.06 0.06 55 1024.3
20260902232858 89 223 0.0 0.0 0.00 0.06 0.06 55 1024.4
20260902232355 89 223 0.0 0.0 0.00 0.06 0.06 54 1024.3
20260902231900 89 223 0.0 0.0 0.00 0.06 0.06 54 1024.4
20260902231331 90 223 0.0 0.0 0.00 0.06 0.06 52 1024.3
20260902230830 91 223 0.0 0.0 0.00 0.06 0.06 51 1024.4
20260902230304 91 223 0.0 0.0 0.00 0.06 0.06 51 1024.4
20260902225736 92 223 0.0 0.0 0.00 0.06 0.06 51 1024.4
20260902225502 92 223 0.0 0.0 0.00 0.06 0.06 50 1024.3
20260902224951 92 223 0.0 0.0 0.00 0.06 0.06 51 1024.3
20260902224218 92 223 0.0 0.0 0.00 0.06 0.06 50 1024.4
20260902223650 92 223 0.0 0.0 0.00 0.06 0.06 51 1024.4
20260902223124 92 224 0.0 0.0 0.00 0.06 0.06 51 1024.4
20260902222555 92 223 0.0 0.0 0.00 0.06 0.06 50 1024.5
20260902222051 92 223 0.0 0.0 0.00 0.06 0.06 50 1024.4
20260902221038 92 229 0.0 0.0 0.00 0.06 0.06 49 1024.4
20260902220807 92 229 0.0 0.0 0.00 0.06 0.06 49 1024.4
20260902220247 92 229 0.0 0.0 0.00 0.06 0.06 49 1024.4
20260902215746 92 184 0.0 0.0 0.00 0.06 0.06 50 1024.4
20260902215014 92 219 0.0 0.0 0.00 0.06 0.06 49 1024.4
20260902214515 92 217 0.0 0.0 0.00 0.06 0.06 49 1024.6
20260902214003 92 192 0.0 0.0 0.00 0.06 0.06 50 1024.6
20260902213506 92 87 0.0 0.0 0.00 0.06 0.06 50 1024.5
20260902213209 93 231 0.0 1.0 0.00 0.06 0.06 48 1024.8
20260902212707 92 231 0.0 1.0 0.00 0.06 0.06 49 1024.8
20260902211933 93 195 0.0 0.0 0.00 0.06 0.06 47 1024.8
20260902211704 92 129 0.0 0.0 0.00 0.06 0.06 49 1024.8
20260902211200 92 129 0.0 0.0 0.00 0.06 0.06 49 1024.9
20260902210655 91 77 0.0 0.0 0.00 0.06 0.06 50 1024.9
20260902205921 91 77 0.0 0.0 0.00 0.06 0.06 50 1024.9
20260902205422 92 95 0.0 0.0 0.00 0.06 0.06 49 1024.9
20260902204900 92 102 0.0 0.0 0.00 0.06 0.06 50 1024.9
20260902204352 91 38 0.0 0.0 0.00 0.06 0.06 50 1024.8
20260902203851 91 125 0.0 0.0 0.00 0.06 0.06 48 1024.9
20260902203613 92 230 0.0 0.0 0.00 0.06 0.06 50 1024.9
20260902203113 91 196 0.0 0.0 0.00 0.06 0.06 50 1024.8
20260902202615 91 31 0.0 0.0 0.00 0.06 0.06 51 1024.8
20260902201824 90 36 0.0 0.0 0.00 0.06 0.06 50 1024.9
20260902201313 90 61 0.0 0.0 0.00 0.06 0.06 51 1025.1
20260902201029 90 53 0.0 0.0 0.00 0.06 0.06 52 1025.1
20260902200300 89 43 0.0 0.0 0.00 0.06 0.06 53 1025.2
20260902200249 88 28 0.0 0.0 0.00 0.06 0.06 53 1025.3
20260902195246 88 28 0.0 0.0 0.00 0.06 0.06 52 1025.4
20260902194748 89 25 0.0 0.0 0.00 0.06 0.06 52 1025.5
20260902194242 89 65 0.0 0.0 0.00 0.06 0.06 53 1025.6
20260902193739 89 13 0.0 0.0 0.00 0.06 0.06 51 1025.6
20260902193242 89 273 0.0 0.0 0.00 0.06 0.06 53 1025.7
20260902192736 89 30 0.0 0.0 0.00 0.06 0.06 53 1025.7
20260902192233 88 41 0.0 0.0 0.00 0.06 0.06 54 1025.7
20260902191736 87 41 0.0 0.0 0.00 0.06 0.06 55 1025.7
20260902191506 88 28 0.0 0.0 0.00 0.06 0.06 54 1025.7
20260902190705 88 61 0.0 0.0 0.00 0.06 0.06 54 1025.7
20260902190149 88 55 0.0 0.0 0.00 0.06 0.06 57 1025.7
20260902185639 88 159 0.0 0.0 0.00 0.06 0.06 55 1025.8
20260902185137 88 170 0.0 0.0 0.00 0.06 0.06 54 1025.8
20260902184635 88 205 0.0 0.0 0.00 0.06 0.06 54 1025.9
20260902184133 88 226 0.0 0.0 0.00 0.06 0.06 54 1025.9
20260902183607 87 12 0.0 0.0 0.00 0.06 0.06 56 1026.0
20260902183101 86 32 0.0 0.0 0.00 0.06 0.06 58 1026.0
20260902182559 86 29 0.0 0.0 0.00 0.06 0.06 57 1025.9
20260902182101 86 26 0.0 0.0 0.00 0.06 0.06 58 1025.9
20260902181547 85 88 0.0 0.0 0.00 0.06 0.06 58 1025.9
20260902181045 85 87 0.0 0.0 0.00 0.06 0.06 62 1025.9
20260902180546 85 94 0.0 0.0 0.00 0.06 0.06 62 1026.1
20260902180040 85 34 0.0 0.0 0.00 0.06 0.06 60 1026.2
20260902175540 85 323 0.0 0.0 0.00 0.06 0.06 60 1026.3
20260902175012 84 5 0.0 0.0 0.00 0.06 0.06 61 1026.2
20260902174515 84 29 0.0 0.0 0.00 0.06 0.06 62 1026.2
20260902173946 84 90 0.0 0.0 0.00 0.06 0.06 62 1026.3
20260902173439 84 0 0.0 0.0 0.00 0.06 0.06 62 1026.5
20260902172910 83 21 0.0 0.0 0.00 0.06 0.06 62 1026.5
20260902172343 83 21 0.0 0.0 0.00 0.06 0.06 62 1026.6
20260902171819 83 139 0.0 0.0 0.00 0.06 0.06 63 1026.8
20260902171250 83 92 0.0 0.0 0.00 0.06 0.06 63 1026.9
20260902171026 82 134 0.0 0.0 0.00 0.06 0.06 65 1027.0
20260902170212 81 107 0.0 0.0 0.00 0.06 0.06 65 1027.2
20260902165709 81 129 0.0 0.0 0.00 0.06 0.06 65 1027.4
20260902165208 82 219 0.0 0.0 0.00 0.06 0.06 64 1027.3
20260902164642 81 86 0.0 0.0 0.00 0.06 0.06 66 1027.3
20260902164118 80 86 0.0 0.0 0.00 0.06 0.06 67 1027.2
20260902163621 79 84 0.0 0.0 0.00 0.06 0.06 68 1026.9
20260902163102 79 84 0.0 0.0 0.00 0.06 0.06 69 1026.9
20260902162600 78 5 0.0 0.0 0.00 0.06 0.06 68 1026.9
20260902162052 78 107 0.0 0.0 0.00 0.06 0.06 69 1026.9
20260902161550 78 54 0.0 0.0 0.00 0.06 0.06 70 1026.8
20260902161021 79 100 0.0 0.0 0.00 0.06 0.06 68 1026.8
20260902160518 79 100 0.0 0.0 0.00 0.06 0.06 68 1026.8
20260902160012 79 105 0.0 0.0 0.00 0.06 0.06 69 1026.7
20260902155449 79 241 0.0 0.0 0.00 0.06 0.06 69 1026.7
20260902154949 78 76 0.0 0.0 0.00 0.06 0.06 71 1026.7
20260902154453 77 75 0.0 0.0 0.00 0.06 0.06 72 1026.5
20260902154156 76 71 0.0 0.0 0.00 0.06 0.06 74 1026.5
20260902153423 76 81 0.0 0.0 0.00 0.06 0.06 76 1026.5
20260902152910 75 28 0.0 0.0 0.00 0.06 0.06 77 1026.5
20260902152343 75 79 0.0 0.0 0.00 0.06 0.06 77 1026.6
20260902152110 74 29 0.0 0.0 0.00 0.06 0.06 77 1026.4
20260902151338 74 22 0.0 0.0 0.00 0.06 0.06 78 1026.3
20260902150834 74 24 0.0 0.0 0.00 0.06 0.06 78 1026.3
20260902150330 73 80 0.0 0.0 0.00 0.06 0.06 79 1026.3
20260902145807 73 68 0.0 0.0 0.00 0.06 0.06 79 1026.4
20260902145238 73 96 0.0 0.0 0.00 0.06 0.06 81 1026.4
20260902144735 72 68 0.0 0.0 0.00 0.06 0.06 82 1026.4
20260902144502 71 41 0.0 0.0 0.00 0.06 0.06 82 1026.4
20260902143730 71 108 0.0 0.0 0.00 0.06 0.06 82 1026.4
20260902143226 71 74 0.0 0.0 0.00 0.06 0.06 83 1026.4
20260902142716 71 34 0.0 0.0 0.00 0.06 0.06 83 1026.5
20260902142213 71 67 0.0 0.0 0.00 0.06 0.06 84 1026.6
20260902141931 70 78 0.0 0.0 0.00 0.06 0.06 85 1026.7
20260902141132 69 76 0.0 0.0 0.00 0.06 0.06 86 1026.7
20260902140630 69 26 0.0 0.0 0.00 0.06 0.06 87 1026.8
20260902140113 69 99 0.0 0.0 0.00 0.06 0.06 88 1026.7
20260902135617 68 5 0.0 0.0 0.00 0.06 0.06 87 1026.8
20260902135051 68 30 0.0 0.0 0.00 0.06 0.06 87 1026.8
20260902134522 68 59 0.0 0.0 0.00 0.06 0.06 87 1026.6
20260902134021 68 90 0.0 0.0 0.00 0.06 0.06 88 1026.5